H1 CPF 2 NER 2025 7 21 9 202 01 glonass131 H2 1301901 9131 39155 2025 7 21 0 0 0 2025 7 24 23 45 0 900 1 1 0 0 0 1 H9 10 0 60877 0.00000 0 -3868531.098 14232760.768 -20789113.176 10 0 60877 900.00000 0 -5812094.330 15767562.896 -19175074.621 10 0 60877 1800.00000 0 -7465925.993 17299589.559 -17188112.052 10 0 60877 2700.00000 0 -8809516.756 18766431.648 -14867129.896 10 0 60877 3600.00000 0 -9835362.473 20104875.110 -12257459.593 10 0 60877 4500.00000 0 -10548992.399 21253560.981 -9409960.804 10 0 60877 5400.00000 0 -10968453.719 22155580.255 -6380020.832 10 0 60877 6300.00000 0 -11123277.624 22760895.340 -3226472.543 10 0 60877 7200.00000 0 -11052973.491 23028487.592 -10452.295 10 0 60877 8100.00000 0 -10805116.978 22928142.464 3205779.875 10 0 60877 9000.00000 0 -10433114.145 22441799.169 6360035.361 10 0 60877 9900.00000 0 -9993736.501 21564410.122 9391384.940 10 0 60877 10800.00000 0 -9544530.689 20304275.737 12241317.818 10 0 60877 11700.00000 0 -9141211.003 18682841.744 14854850.928 10 0 60877 12600.00000 0 -8835143.070 16733967.989 17181568.791 10 0 60877 13500.00000 0 -8671022.813 14502699.051 19176575.905 10 0 60877 14400.00000 0 -8684846.508 12043586.847 20801345.240 10 0 60877 15300.00000 0 -8902255.704 9418633.327 22024448.289 10 0 60877 16200.00000 0 -9337325.520 6694936.353 22822154.122 10 0 60877 17100.00000 0 -9991846.940 3942133.696 23178886.951 10 0 60877 18000.00000 0 -10855133.834 1229748.221 23087533.797 10 0 60877 18900.00000 0 -11904364.331 -1375458.527 22549596.100 10 0 60877 19800.00000 0 -13105444.547 -3812017.156 21575181.456 10 0 60877 20700.00000 0 -14414361.381 -6026062.545 20182834.019 10 0 60877 21600.00000 0 -15778970.829 -7973332.474 18399204.766 10 0 60877 22500.00000 0 -17141149.998 -9620770.015 16258565.495 10 0 60877 23400.00000 0 -18439225.201 -10947662.518 13802173.314 10 0 60877 24300.00000 0 -19610576.174 -11946268.603 11077495.399 10 0 60877 25200.00000 0 -20594308.002 -12621905.439 8137306.759 10 0 60877 26100.00000 0 -21333878.255 -12992490.969 5038676.863 10 0 60877 27000.00000 0 -21779567.573 -13087558.798 1841863.795 10 0 60877 27900.00000 0 -21890687.463 -12946786.085 -1390862.794 10 0 60877 28800.00000 0 -21637429.372 -12618096.065 -4596446.396 10 0 60877 29700.00000 0 -21002273.810 -12155415.671 -7712290.841 10 0 60877 30600.00000 0 -19980896.784 -11616184.187 -10677503.755 10 0 60877 31500.00000 0 -18582532.380 -11058720.291 -13434109.695 10 0 60877 32400.00000 0 -16829773.811 -10539561.360 -15928206.780 10 0 60877 33300.00000 0 -14757819.765 -10110890.483 -18111041.888 10 0 60877 34200.00000 0 -12413197.079 -9818162.847 -19939981.265 10 0 60877 35100.00000 0 -9852013.602 -9698034.432 -21379355.950 10 0 60877 36000.00000 0 -7137815.407 -9776682.546 -22401164.486 10 0 60877 36900.00000 0 -4339139.547 -10068590.411 -22985618.702 10 0 60877 37800.00000 0 -1526866.294 -10575847.556 -23121522.142 10 0 60877 38700.00000 0 1228517.046 -11287995.180 -22806474.495 10 0 60877 39600.00000 0 3859625.391 -12182421.913 -22046899.235 10 0 60877 40500.00000 0 6304744.737 -13225291.707 -20857895.493 10 0 60877 41400.00000 0 8510153.837 -14372962.846 -19262918.794 10 0 60877 42300.00000 0 10432103.005 -15573836.290 -17293298.737 10 0 60877 43200.00000 0 12038369.553 -16770553.684 -14987604.818 10 0 60877 44100.00000 0 13309327.690 -17902450.995 -12390874.439 10 0 60877 45000.00000 0 14238491.452 -18908163.484 -9553719.607 10 0 60877 45900.00000 0 14832511.606 -19728271.964 -6531330.901 10 0 60877 46800.00000 0 15110630.270 -20307879.249 -3382398.922 10 0 60877 47700.00000 0 15103619.527 -20599009.159 -167974.676 10 0 60877 48600.00000 0 14852251.437 -20562728.521 3049708.897 10 0 60877 49500.00000 0 14405365.885 -20170904.561 6208431.779 10 0 60877 50400.00000 0 13817618.792 -19407525.570 9247175.707 10 0 60877 51300.00000 0 13147005.767 -18269531.047 12107285.138 10 0 60877 52200.00000 0 12452264.900 -16767117.709 14733579.488 10 0 60877 53100.00000 0 11790266.734 -14923509.287 17075396.876 10 0 60877 54000.00000 0 11213499.428 -12774199.657 19087551.230 10 0 60877 54900.00000 0 10767752.861 -10365700.077 20731186.266 10 0 60877 55800.00000 0 10490097.024 -7753841.109 21974511.667 10 0 60877 56700.00000 0 10407238.024 -5001697.569 22793408.828 10 0 60877 57600.00000 0 10534319.700 -2177219.826 23171895.541 10 0 60877 58500.00000 0 10874220.945 649333.314 23102441.134 10 0 60877 59400.00000 0 11417378.904 3408056.851 22586125.800 10 0 60877 60300.00000 0 12142147.006 6032049.463 21632640.142 10 0 60877 61200.00000 0 13015675.091 8459943.432 20260123.429 10 0 60877 62100.00000 0 13995277.478 10638211.289 18494841.566 10 0 60877 63000.00000 0 15030234.475 12523154.151 16370708.541 10 0 60877 63900.00000 0 16063954.416 14082488.922 13928657.991 10 0 60877 64800.00000 0 17036407.575 15296467.376 11215874.468 10 0 60877 65700.00000 0 17886730.967 16158478.997 8284897.042 10 0 60877 66600.00000 0 18555894.754 16675110.534 5192610.933 10 0 60877 67500.00000 0 18989317.182 16865658.056 1999145.702 10 0 60877 68400.00000 0 19139316.061 16761110.506 -1233298.833 10 0 60877 69300.00000 0 18967290.722 16402646.611 -4441675.535 10 0 60877 70200.00000 0 18445539.207 15839708.316 -7563336.623 10 0 60877 71100.00000 0 17558630.550 15127732.743 -10537277.922 10 0 60877 72000.00000 0 16304270.929 14325639.894 -13305354.065 10 0 60877 72900.00000 0 14693624.295 13493184.461 -15813438.500 10 0 60877 73800.00000 0 12751071.741 12688286.216 -18012503.230 10 0 60877 74700.00000 0 10513418.438 11964454.582 -19859595.059 10 0 60877 75600.00000 0 8028580.965 11368418.785 -21318687.596 10 0 60877 76500.00000 0 5353810.481 10938065.778 -22361391.313 10 0 60877 77400.00000 0 2553527.182 10700774.494 -22967507.262 10 0 60877 78300.00000 0 -303141.969 10672217.303 -23125413.846 10 0 60877 79200.00000 0 -3145017.888 10855679.039 -22832279.803 10 0 60877 80100.00000 0 -5901604.269 11241921.254 -22094100.432 10 0 60877 81000.00000 0 -8505787.828 11809595.751 -20925557.924 10 0 60877 81900.00000 0 -10896391.166 12526187.842 -19349710.257 10 0 60877 82800.00000 0 -13020472.406 13349447.235 -17397516.583 10 0 60877 83700.00000 0 -14835277.169 14229243.957 -15107210.173 10 0 60877 84600.00000 0 -16309763.681 15109769.096 -12523532.806 10 0 60877 85500.00000 0 -17425640.175 15931986.034 -9696847.011 10 0 60878 0.00000 0 -18177874.485 16636227.831 -6682144.904 10 0 60878 900.00000 0 -18574658.376 17164831.360 -3537972.093 10 0 60878 1800.00000 0 -18636830.551 17464696.581 -325292.175 10 0 60878 2700.00000 0 -18396786.978 17489665.334 2893691.442 10 0 60878 3600.00000 0 -17896925.627 17202619.840 6056729.887 10 0 60878 4500.00000 0 -17187693.124 16577214.584 9102718.497 10 0 60878 5400.00000 0 -16325316.121 15599170.287 11972859.694 10 0 60878 6300.00000 0 -15369312.642 14267076.964 14611778.115 10 0 60878 7200.00000 0 -14379887.058 12592673.268 16968568.174 10 0 60878 8100.00000 0 -13415316.601 10600590.656 18997755.832 10 0 60878 9000.00000 0 -12529437.074 8327572.475 20660157.980 10 0 60878 9900.00000 0 -11769331.203 5821199.177 21923624.684 10 0 60878 10800.00000 0 -11173314.535 3138170.642 22763651.542 10 0 60878 11700.00000 0 -10769301.744 342214.186 23163851.447 10 0 60878 12600.00000 0 -10573620.905 -2498297.959 23116277.140 10 0 60878 13500.00000 0 -10590325.295 -5312926.199 22621588.210 10 0 60878 14400.00000 0 -10811032.299 -8031832.446 21689058.429 10 0 60878 15300.00000 0 -11215297.722 -10588432.306 20336421.811 10 0 60878 16200.00000 0 -11771511.969 -12921922.622 18589558.292 10 0 60878 17100.00000 0 -12438283.040 -14979580.645 16482022.634 10 0 60878 18000.00000 0 -13166250.799 -16718739.505 14054423.086 10 0 60878 18900.00000 0 -13900258.559 -18108357.151 11353659.207 10 0 60878 19800.00000 0 -14581792.226 -19130112.023 8432031.374 10 0 60878 20700.00000 0 -15151585.039 -19778977.822 5346237.491 10 0 60878 21600.00000 0 -15552277.844 -20063251.336 2156275.295 10 0 60878 22500.00000 0 -15731021.338 -20004030.285 -1075728.703 10 0 60878 23400.00000 0 -15641908.176 -19634161.682 -4286740.312 10 0 60878 24300.00000 0 -15248129.230 -18996704.230 -7414063.761 10 0 60878 25200.00000 0 -14523759.517 -18142969.602 -10396586.662 10 0 60878 26100.00000 0 -13455094.882 -17130226.155 -13175997.225 10 0 60878 27000.00000 0 -12041479.786 -16019163.665 -15697947.522 10 0 60878 27900.00000 0 -10295588.562 -14871228.366 -17913137.679 10 0 60878 28800.00000 0 -8243146.387 -13745943.383 -19778297.640 10 0 60878 29700.00000 0 -5922100.590 -12698330.172 -21257045.655 10 0 60878 30600.00000 0 -3381276.871 -11776542.021 -22320605.588 10 0 60878 31500.00000 0 -678577.315 -11019811.048 -22948368.544 10 0 60878 32400.00000 0 2121203.326 -10456796.103 -23128287.974 10 0 60878 33300.00000 0 4948850.415 -10104401.167 -22857101.246 10 0 60878 34200.00000 0 7733386.630 -9967113.145 -22140374.544 10 0 60878 35100.00000 0 10404801.630 -10036885.263 -20992371.715 10 0 60878 36000.00000 0 12896739.753 -10293568.734 -19435751.399 10 0 60878 36900.00000 0 15149033.722 -10705871.871 -17501100.166 10 0 60878 37800.00000 0 17109979.568 -11232803.557 -15226312.602 10 0 60878 38700.00000 0 18738259.507 -11825537.633 -12655832.101 10 0 60878 39600.00000 0 20004434.767 -12429617.478 -9839768.659 10 0 60878 40500.00000 0 20891948.930 -12987406.191 -6832912.054 10 0 60878 41400.00000 0 21397603.006 -13440678.089 -3693660.472 10 0 60878 42300.00000 0 21531485.666 -13733242.030 -482885.941 10 0 60878 43200.00000 0 21316364.669 -13813486.321 2737241.300 10 0 60878 44100.00000 0 20786567.652 -13636738.970 5904447.039 10 0 60878 45000.00000 0 19986401.283 -13167345.164 8957543.486 10 0 60878 45900.00000 0 18968176.294 -12380376.079 11837593.949 10 0 60878 46800.00000 0 17789921.612 -11262898.549 14489030.772 10 0 60878 47700.00000 0 16512882.972 -9814753.379 16860706.684 10 0 60878 48600.00000 0 15198909.609 -8048810.153 18906861.195 10 0 60878 49500.00000 0 13907836.715 -5990687.643 20587985.399 10 0 60878 50400.00000 0 12694971.130 -3677950.439 21871570.299 10 0 60878 51300.00000 0 11608783.280 -1158813.458 22732725.809 10 0 60878 52200.00000 0 10688899.949 1509594.369 23154659.622 10 0 60878 53100.00000 0 9964480.345 4263338.108 23129007.214 10 0 60878 54000.00000 0 9453042.561 7034072.395 22656006.538 10 0 60878 54900.00000 0 9159789.504 9751628.565 21744513.195 10 0 60878 55800.00000 0 9077463.322 12346688.974 20411854.341 10 0 60878 56700.00000 0 9186735.898 14753440.040 18683522.094 10 0 60878 57600.00000 0 9457121.099 16912095.443 16592709.954 10 0 60878 58500.00000 0 9848372.745 18771185.297 14179698.559 10 0 60878 59400.00000 0 10312311.740 20289515.716 11491100.112 10 0 60878 60300.00000 0 10795007.269 21437715.998 8578973.797 10 0 60878 61200.00000 0 11239221.259 22199306.953 5499827.581 10 0 60878 62100.00000 0 11587013.174 22571243.564 2313524.680 10 0 60878 63000.00000 0 11782394.366 22563907.005 -917884.424 10 0 60878 63900.00000 0 11773918.038 22200544.403 -4131381.178 10 0 60878 64800.00000 0 11517092.691 21516178.571 -7264224.385 10 0 60878 65700.00000 0 10976513.840 20556032.980 -10255195.826 10 0 60878 66600.00000 0 10127620.357 19373538.607 -13045819.408 10 0 60878 67500.00000 0 8957997.830 18028007.814 -15581527.670 10 0 60878 68400.00000 0 7468170.823 16582075.114 -17812750.407 10 0 60878 69300.00000 0 5671848.228 15099015.043 -19695901.978 10 0 60878 70200.00000 0 3595609.690 13640052.629 -21194246.288 10 0 60878 71100.00000 0 1278045.529 12261782.080 -22278621.401 10 0 60878 72000.00000 0 -1231613.722 11013804.235 -22928009.064 10 0 60878 72900.00000 0 -3875320.025 9936683.377 -23129938.141 10 0 60878 73800.00000 0 -6588405.370 9060309.634 -22880714.760 10 0 60878 74700.00000 0 -9302060.906 8402735.217 -22185475.809 10 0 60878 75600.00000 0 -11945992.872 7969531.927 -21058066.291 10 0 60878 76500.00000 0 -14451143.573 7753694.686 -19520744.652 10 0 60878 77400.00000 0 -16752363.435 7736092.378 -17603723.690 10 0 60878 78300.00000 0 -18790922.969 7886443.988 -15344557.817 10 0 60878 79200.00000 0 -20516760.840 8164775.896 -12787390.311 10 0 60878 80100.00000 0 -21890375.875 8523296.169 -9982076.723 10 0 60878 81000.00000 0 -22884286.359 8908604.575 -6983202.738 10 0 60878 81900.00000 0 -23483998.363 9264143.512 -3849016.447 10 0 60878 82800.00000 0 -23688445.639 9532785.572 -640296.371 10 0 60878 83700.00000 0 -23509885.634 9659448.459 2580822.701 10 0 60878 84600.00000 0 -22973258.735 9593627.500 5752043.585 10 0 60878 85500.00000 0 -22115039.768 9291740.035 8812097.817 10 0 60879 0.00000 0 -20981631.556 8719184.352 11701911.859 10 0 60879 900.00000 0 -19627367.862 7852027.600 14365728.847 10 0 60879 1800.00000 0 -18112210.818 6678253.790 16752162.084 10 0 60879 2700.00000 0 -16499236.242 5198519.304 18815167.064 10 0 60879 3600.00000 0 -14852011.869 3426385.095 20514911.343 10 0 60879 4500.00000 0 -13231975.445 1388014.970 21818528.873 10 0 60879 5400.00000 0 -11695919.976 -878648.882 22700745.594 10 0 60879 6300.00000 0 -10293688.863 -3325201.015 23144365.358 10 0 60879 7200.00000 0 -9066175.176 -5894526.690 23140607.367 10 0 60879 8100.00000 0 -8043707.190 -8522925.079 22689288.545 10 0 60879 9000.00000 0 -7244886.876 -11142516.993 21798846.538 10 0 60879 9900.00000 0 -6675929.991 -13683840.414 20486201.452 10 0 60879 10800.00000 0 -6330536.196 -16078528.861 18776457.012 10 0 60879 11700.00000 0 -6190296.123 -18261963.368 16702444.459 10 0 60879 12600.00000 0 -6225620.201 -20175788.881 14304115.446 10 0 60879 13500.00000 0 -6397152.253 -21770190.470 11627793.067 10 0 60879 14400.00000 0 -6657610.221 -23005833.576 8725293.222 10 0 60879 15300.00000 0 -6953977.792 -23855385.589 5652931.564 10 0 60879 16200.00000 0 -7229955.068 -24304552.896 2470434.144 10 0 60879 17100.00000 0 -7428564.410 -24352587.465 -760227.446 10 0 60879 18000.00000 0 -7494800.036 -24012239.303 -3976053.328 10 0 60879 18900.00000 0 -7378207.065 -23309154.845 -7114260.088 10 0 60879 19800.00000 0 -7035278.010 -22280745.303 -10113526.979 10 0 60879 20700.00000 0 -6431561.973 -20974572.160 -12915216.979 10 0 60879 21600.00000 0 -5543393.883 -19446318.286 -15464546.423 10 0 60879 22500.00000 0 -4359167.429 -17757431.370 -17711677.971 10 0 60879 23400.00000 0 -2880095.168 -15972540.826 -19612713.330 10 0 60879 24300.00000 0 -1120421.678 -14156759.161 -21130564.623 10 0 60879 25200.00000 0 892920.509 -12372983.578 -22235686.199 10 0 60879 26100.00000 0 3121198.141 -10679313.339 -22906651.998 10 0 60879 27000.00000 0 5515270.135 -9126692.778 -23130567.286 10 0 60879 27900.00000 0 8017426.827 -7756879.602 -22903307.376 10 0 60879 28800.00000 0 10563597.358 -6600823.509 -22229579.777 10 0 60879 29700.00000 0 13085831.535 -5677521.943 -21122810.082 10 0 60879 30600.00000 0 15514951.303 -4993398.957 -19604855.542 10 0 60879 31500.00000 0 17783260.222 -4542230.520 -17705553.765 10 0 60879 32400.00000 0 19827197.590 -4305616.181 -15462117.151 10 0 60879 33300.00000 0 21589826.804 -4253973.909 -12918386.598 10 0 60879 34200.00000 0 23023055.077 -4348012.972 -10123960.537 10 0 60879 35100.00000 0 24089493.558 -4540619.971 -7133217.479 10 0 60879 36000.00000 0 24763882.357 -4779076.233 -4004252.018 10 0 60879 36900.00000 0 25034023.504 -5007511.541 -797745.520 10 0 60879 37800.00000 0 24901185.574 -5169489.932 2424206.445 10 0 60879 38700.00000 0 24379965.671 -5210618.484 5599287.456 10 0 60879 39600.00000 0 23497616.824 -5081069.780 8666151.959 10 0 60879 40500.00000 0 22292870.682 -4737912.839 11565593.379 10 0 60879 41400.00000 0 20814305.725 -4147155.761 14241667.533 10 0 60879 42300.00000 0 19118329.437 -3285415.529 16642751.338 10 0 60879 43200.00000 0 17266858.130 -2141145.900 18722518.320 10 0 60879 44100.00000 0 15324789.908 -715372.435 20440814.086 10 0 60879 45000.00000 0 13357374.279 978096.286 21764416.671 10 0 60879 45900.00000 0 11427585.769 2912991.057 22667668.743 10 0 60879 46800.00000 0 9593608.508 5051426.460 23132970.598 10 0 60879 47700.00000 0 7906534.358 7345234.622 23151125.035 10 0 60879 48600.00000 0 6408368.542 9737735.950 22721527.428 10 0 60879 49500.00000 0 5130424.635 12165876.623 21852196.561 10 0 60879 50400.00000 0 4092175.316 14562647.361 20559644.236 10 0 60879 51300.00000 0 3300607.060 16859686.005 18868584.189 10 0 60879 52200.00000 0 2750106.672 18989958.127 16811483.533 10 0 60879 53100.00000 0 2422885.885 20890405.649 14427962.809 10 0 60879 54000.00000 0 2289927.959 22504453.689 11764053.663 10 0 60879 54900.00000 0 2312418.252 23784270.582 8871326.184 10 0 60879 55800.00000 0 2443600.030 24692685.200 5805901.017 10 0 60879 56700.00000 0 2630978.112 25204679.185 2627364.244 10 0 60879 57600.00000 0 2818777.408 25308388.950 -602394.324 10 0 60879 58500.00000 0 2950551.597 25005572.656 -3820396.384 10 0 60879 59400.00000 0 2971829.837 24311520.085 -6963819.135 10 0 60879 60300.00000 0 2832687.001 23254407.250 -9971241.998 10 0 60879 61200.00000 0 2490125.528 21874121.739 -12783869.491 10 0 60879 62100.00000 0 1910164.745 20220607.967 -15346703.963 10 0 60879 63000.00000 0 1069545.961 18351802.573 -17609642.867 10 0 60879 63900.00000 0 -43021.742 16331248.202 -19528476.902 10 0 60879 64800.00000 0 -1426129.978 14225487.938 -21065767.780 10 0 60879 65700.00000 0 -3065486.337 12101351.974 -22191587.236 10 0 60879 66600.00000 0 -4934285.044 10023252.555 -22884102.234 10 0 60879 67500.00000 0 -6994117.483 8050602.304 -23129994.991 10 0 60879 68400.00000 0 -9196383.729 6235465.194 -22924710.229 10 0 60879 69300.00000 0 -11484144.759 4620538.720 -22272525.943 10 0 60879 70200.00000 0 -13794336.416 3237551.031 -21186447.793 10 0 60879 71100.00000 0 -16060251.087 2106138.405 -19687930.909 10 0 60879 72000.00000 0 -18214182.137 1233247.597 -17806436.395 10 0 60879 72900.00000 0 -20190119.825 613084.937 -15578832.998 10 0 60879 73800.00000 0 -21926385.888 227610.794 -13048657.328 10 0 60879 74700.00000 0 -23368097.095 47555.056 -10265248.582 10 0 60879 75600.00000 0 -24469355.945 33907.552 -7282775.868 10 0 60879 76500.00000 0 -25195078.617 139817.814 -4159177.952 10 0 60879 77400.00000 0 -25522385.833 312821.914 -955036.646 10 0 60879 78300.00000 0 -25441500.872 497301.133 2267594.146 10 0 60879 79200.00000 0 -24956119.580 637068.197 5446381.284 10 0 60879 80100.00000 0 -24083239.120 677972.218 8519904.690 10 0 60879 81000.00000 0 -22852454.427 570413.389 11428827.089 10 0 60879 81900.00000 0 -21304752.937 271662.725 14117020.077 10 0 60879 82800.00000 0 -19490858.380 -252109.315 16532626.408 10 0 60879 83700.00000 0 -17469192.404 -1024179.309 18629039.976 10 0 60879 84600.00000 0 -15303537.878 -2056060.902 20365786.533 10 0 60879 85500.00000 0 -13060499.444 -3346788.759 21709290.004 10 0 60880 0.00000 0 -10806864.964 -4882726.692 22633511.174 10 0 60880 900.00000 0 -8606973.842 -6637910.113 23120448.032 10 0 60880 1800.00000 0 -6520202.200 -8574908.495 23160487.600 10 0 60880 2700.00000 0 -4598663.194 -10646177.375 22752604.075 10 0 60880 3600.00000 0 -2885219.345 -12795844.856 21904397.430 10 0 60880 4500.00000 0 -1411887.391 -14961862.332 20631970.897 10 0 60880 5400.00000 0 -198701.928 -17078433.084 18959647.670 10 0 60880 6300.00000 0 746914.306 -19078620.329 16919529.881 10 0 60880 7200.00000 0 1430246.152 -20897028.040 14550905.804 10 0 60880 8100.00000 0 1868842.266 -22472443.751 11899514.180 10 0 60880 9000.00000 0 2091548.859 -23750332.953 9016677.532 10 0 60880 9900.00000 0 2137060.020 -24685079.695 5958319.475 10 0 60880 10800.00000 0 2052044.571 -25241877.589 2783883.835 10 0 60880 11700.00000 0 1888928.054 -25398189.346 -444823.856 10 0 60880 12600.00000 0 1703423.891 -25144710.607 -3664849.576 10 0 60880 13500.00000 0 1551919.408 -24485794.678 -6813334.009 10 0 60880 14400.00000 0 1488829.437 -23439317.792 -9828759.760 10 0 60880 15300.00000 0 1564032.258 -22035988.680 -12652176.011 10 0 60880 16200.00000 0 1820499.608 -20318130.505 -15228374.273 10 0 60880 17100.00000 0 2292224.315 -18337986.273 -17506989.887 10 0 60880 18000.00000 0 3002536.269 -16155619.732 -19443505.477 10 0 60880 18900.00000 0 3962880.520 -13836501.412 -21000134.991 10 0 60880 19800.00000 0 5172110.997 -11448882.978 -22146569.826 10 0 60880 20700.00000 0 6616330.765 -9061072.053 -22860571.796 10 0 60880 21600.00000 0 8269285.906 -6738723.482 -23128401.395 10 0 60880 22500.00000 0 10093296.032 -4542261.714 -22945073.584 10 0 60880 23400.00000 0 12040681.370 -2524542.737 -22314437.180 10 0 60880 24300.00000 0 14055625.153 -728853.027 -21249077.786 10 0 60880 25200.00000 0 16076391.727 812672.106 -19770047.847 10 0 60880 26100.00000 0 18037805.993 2080146.762 -17906430.972 10 0 60880 27000.00000 0 19873889.225 3066506.229 -15694750.833 10 0 60880 27900.00000 0 21520540.260 3777531.828 -13178237.897 10 0 60880 28800.00000 0 22918149.739 4231331.467 -10405969.840 10 0 60880 29700.00000 0 24014038.521 4457301.404 -7431903.658 10 0 60880 30600.00000 0 24764619.398 4494616.205 -4313819.221 10 0 60880 31500.00000 0 25137193.215 4390313.190 -1112195.445 10 0 60880 32400.00000 0 25111306.289 4197054.086 2110958.949 10 0 60880 33300.00000 0 24679614.431 3970659.348 5293297.664 10 0 60880 34200.00000 0 23848219.521 3767519.406 8373329.577 10 0 60880 35100.00000 0 22636466.322 3641991.477 11291590.018 10 0 60880 36000.00000 0 21076209.299 3643890.580 13991769.386 10 0 60880 36900.00000 0 19210580.636 3816178.946 16421778.980 10 0 60880 37800.00000 0 17092310.699 4192949.504 18534735.403 10 0 60880 38700.00000 0 14781669.958 4797786.859 20289846.528 10 0 60880 39600.00000 0 12344116.414 5642573.631 21653183.760 10 0 60880 40500.00000 0 9847744.136 6726792.006 22598327.341 10 0 60880 41400.00000 0 7360636.312 8037350.347 23106873.452 10 0 60880 42300.00000 0 4948230.083 9548943.548 23168793.962 10 0 60880 43200.00000 0 2670799.997 11224934.359 22782641.902 10 0 60880 44100.00000 0 581162.424 13018721.769 21955598.013 10 0 60880 45000.00000 0 -1277305.215 14875542.584 20703356.131 10 0 60880 45900.00000 0 -2872248.877 16734634.353 19049847.669 10 0 60880 46800.00000 0 -4183460.065 18531672.398 17026808.171 10 0 60880 47700.00000 0 -5203488.229 20201381.593 14673191.732 10 0 60880 48600.00000 0 -5937716.662 21680215.281 12034442.005 10 0 60880 49500.00000 0 -6403897.144 22908989.790 9161631.559 10 0 60880 50400.00000 0 -6631161.315 23835363.584 6110484.406 10 0 60880 51300.00000 0 -6658549.048 24416055.525 2940299.417 10 0 60880 52200.00000 0 -6533115.030 24618706.667 -287204.970 10 0 60880 53100.00000 0 -6307693.425 24423304.392 -3509101.882 10 0 60880 54000.00000 0 -6038415.833 23823105.856 -6662498.366 10 0 60880 54900.00000 0 -5782089.182 22825018.879 -9685783.034 10 0 60880 55800.00000 0 -5593546.863 21449421.798 -12519852.415 10 0 60880 56700.00000 0 -5523088.118 19729428.101 -15109289.690 10 0 60880 57600.00000 0 -5614117.174 17709625.909 -17403470.361 10 0 60880 58500.00000 0 -5901085.058 15444345.374 -19357570.995 10 0 60880 59400.00000 0 -6407823.853 12995527.583 -20933459.529 10 0 60880 60300.00000 0 -7146345.848 10430285.868 -22100448.501 10 0 60880 61200.00000 0 -8116159.677 7818263.511 -22835895.756 10 0 60880 62100.00000 0 -9304132.798 5228900.284 -23125640.935 10 0 60880 63000.00000 0 -10684905.934 2728723.634 -22964269.752 10 0 60880 63900.00000 0 -12221841.096 378778.671 -22355201.969 10 0 60880 64800.00000 0 -13868461.972 -1767695.537 -21310602.825 10 0 60880 65700.00000 0 -15570324.540 -3667247.112 -19851121.337 10 0 60880 66600.00000 0 -17267237.692 -5287768.845 -18005462.449 10 0 60880 67500.00000 0 -18895739.184 -6609569.463 -15809803.203 10 0 60880 68400.00000 0 -20391721.992 -7625917.084 -13307066.043 10 0 60880 69300.00000 0 -21693100.324 -8343035.723 -10546064.994 10 0 60880 70200.00000 0 -22742403.524 -8779558.769 -7580542.623 10 0 60880 71100.00000 0 -23489189.780 -8965466.012 -4468117.461 10 0 60880 72000.00000 0 -23892179.598 -8940552.089 -1269162.980 10 0 60880 72900.00000 0 -23921021.256 -8752493.296 1954359.912 10 0 60880 73800.00000 0 -23557616.144 -8454595.919 5140094.451 10 0 60880 74700.00000 0 -22796950.349 -8103321.739 8226481.216 10 0 60880 75600.00000 0 -21647399.447 -7755694.947 11153930.895 10 0 60880 76500.00000 0 -20130495.016 -7466698.945 13865955.409 10 0 60880 77400.00000 0 -18280163.367 -7286771.299 16310237.205 10 0 60880 78300.00000 0 -16141468.254 -7259500.639 18439618.018 10 0 60880 79200.00000 0 -13768909.153 -7419620.672 20212989.991 10 0 60880 80100.00000 0 -11224344.438 -7791384.178 21596073.832 10 0 60880 81000.00000 0 -8574623.618 -8387384.382 22562070.629 10 0 60880 81900.00000 0 -5889024.324 -9207872.959 23092175.982 10 0 60880 82800.00000 0 -3236597.580 -10240603.981 23175947.195 10 0 60880 83700.00000 0 -683528.668 -11461211.907 22811516.470 10 0 60880 84600.00000 0 1709379.476 -12834110.152 22005645.352 10 0 60880 85500.00000 0 3888997.854 -14313875.566 20773618.018 99